{"data":{"norad_id":49105,"epoch":"2026-05-25T02:07:52.148928Z","epoch_age_seconds":57511,"freshness":"FRESH","line1":"1 49105U 21075AG  26145.08879802  .00000066  00000+0  13795-3 0  9993","line2":"2 49105  87.9152  10.4617 0002354  86.4706 273.6695 13.17651640230565","mean_motion":13.1765164,"eccentricity":0.0002354,"inclination_deg":87.9152,"raan_deg":10.4617,"arg_perigee_deg":86.4706,"mean_anomaly_deg":273.6695,"bstar":0.00013795,"rev_number":23056,"period_min":109.28533432403,"perigee_km":1191.9207348965,"apogee_km":1195.4855572373,"semimajor_km":7571.8401460669,"source":"CELESTRAK","updated_at":"2026-05-25T13:38:22.487397Z"}}